Terminal Aerodrome Forecast
Issued by NWS

Home | Current Version | Previous Version | Text Only | Print | Product List | Glossary On
Versions: 1 2 3 4 5 6 7 8 9 10 11 12 13 14 15 16 17 18 19 20 21 22 23 24 25
000
FTUS43 KDLH 252000 AAA
TAFHYR
TAF AMD
KHYR 252056Z 2521/2618 26010G20KT P6SM OVC015
     FM252300 28013G25KT P6SM OVC030
     FM260100 29013G25KT P6SM OVC035
     FM260400 30013G24KT P6SM OVC030
     FM261400 34011KT P6SM SCT035=

USA.gov is the U.S. government's official web portal to all federal, state and local government web resources and services.